Location: El Álamo
(40.2307°N, 3.9945°W)
Time: 16:24:49
(UTC+00:00)

DEBRIS - Pass Details

Date: 19 May 2025
Orbit: 278 x 14610 km, 49.5° (Epoch: 22 June)

Event Time Altitude Azimuth Distance (km) Brightness Sun altitude
Rises 20:20:28 0° 302° (WNW) 6,865 10.8 -9.2°
Reaches altitude 10° 20:26:55 10° 302° (WNW) 4,120 8.9 -10.2°
Maximum altitude 20:34:53 64° 222° (SW) 709 3.4 -11.4°
Enters shadow 20:36:59 18° 143° (SE) 1,174 3.9 -11.7°
